This demonstration page uses our WeatherBlox Daily Observations layout. Learn more.

Left ArrowRight Arrow

47.50024, -111.30081

Hourly Observations for October 29, 2019

Temp ( °F °C ) Dew Point ( °F °C ) Humidity (%) Winds ( mph kmh ) Pressure ( in mb ) Visibility ( mi km ) Precip ( " mm )
12:53 am 00:53 Cloudy 6 -14.4 1 -17.2 79 79 WNW 7 11 30.64 1038 10 16 0.00 0.00
1:53 am 01:53 Cloudy 5 -15 1 -17.2 83 83 W 3 6 30.64 1038 10 16 0.00 0.00
2:49 am 02:49 Mostly Cloudy with Light Snow 1 -17 -2 -19 85 85 WNW 8 13 30.79 1043 7 11 0.00 0.00
2:53 am 02:53 Mostly Cloudy with Light Snow 2 -16.7 -3 -19.4 80 80 WNW 7 11 30.66 1038 6 10 0.00 0.00
3:08 am 03:08 Partly Cloudy 1 -17.2 -3 -19.4 83 83 WNW 8 13 30.79 1043 9 14 0.00 0.00
3:53 am 03:53 Mostly Cloudy -1 -18.3 -4 -20 87 87 W 7 11 30.67 1039 10 16 0.00 0.00
4:53 am 04:53 Clear 1 -17.2 -3 -19.4 83 83 WNW 8 13 30.67 1039 10 16 0.00 0.00
5:53 am 05:53 Cloudy 4 -15.6 -1 -18.3 80 80 WNW 7 11 30.68 1039 10 16 0.00 0.00
6:53 am 06:53 Cloudy with Light Snow 7 -13.9 3 -16.1 84 84 WNW 7 11 30.68 1039 5 8 0.00 0.00
7:53 am 07:53 Cloudy 8 -13.3 4 -15.6 83 83 WNW 7 11 30.68 1039 10 16 0.00 0.00
8:53 am 08:53 Cloudy 9 -12.8 5 -15 84 84 W 7 11 30.69 1039 10 16 0.00 0.00
9:53 am 09:53 Cloudy 10 -12.2 5 -15 80 80 WSW 8 13 30.69 1039 10 16 0.00 0.00
10:53 am 10:53 Cloudy 11 -11.7 5 -15 77 77 WSW 8 13 30.70 1040 10 16 0.00 0.00
11:53 am 11:53 Cloudy 12 -11.1 2 -16.7 64 64 W 10 17 30.68 1039 10 16 0.00 0.00
12:53 pm 12:53 Sunny 12 -11.1 1 -17.2 61 61 WSW 13 20 30.66 1038 10 16 0.00 0.00
1:53 pm 13:53 Sunny 12 -11.1 2 -16.7 64 64 SW 16 26 30.63 1037 10 16 0.00 0.00
2:53 pm 14:53 Sunny 13 -10.6 2 -16.7 61 61 SSW 15 24 30.61 1037 10 16 0.00 0.00
3:53 pm 15:53 Sunny 14 -10 1 -17.2 56 56 SSW 17 28 30.59 1036 10 16 0.00 0.00
4:53 pm 16:53 Sunny 14 -10 2 -16.7 58 58 SSW 15 24 30.58 1035 10 16 0.00 0.00
5:53 pm 17:53 Sunny 12 -11.1 1 -17.2 61 61 SSW 15 24 30.56 1035 10 16 0.00 0.00
6:53 pm 18:53 Clear 10 -12.2 -1 -18.3 61 61 SSW 14 22 30.55 1035 10 16 0.00 0.00
7:53 pm 19:53 Clear 11 -11.7 -1 -18.3 58 58 SSW 15 24 30.53 1034 10 16 0.00 0.00
8:53 pm 20:53 Clear 11 -11.7 0 -17.8 61 61 SSW 15 24 30.53 1034 10 16 0.00 0.00
9:53 pm 21:53 Clear 12 -11.1 0 -17.8 58 58 SSW 17 28 30.51 1033 10 16 0.00 0.00
10:53 pm 22:53 Clear 12 -11.1 0 -17.8 58 58 SSW 17 28 30.51 1033 10 16 0.00 0.00
11:53 pm 23:53 Clear 12 -11.1 0 -17.8 58 58 SSW 18 30 30.50 1033 10 16 0.00 0.00

Powered by AerisWeather